Regional Weather Roundup
Issued by NWS

Home | Current Version | Previous Version | Text Only | Print | Product List | Glossary On
Versions: 1 2 3 4 5 6 7 8 9 10 11 12 13 14 15 16 17 18 19 20 21 22 23 24 25 26 27 28 29 30 31 32 33 34 35 36 37 38 39 40 41 42 43 44 45 46 47 48 49 50
000
ASUS44 KFWD 051503
RWRTX
NORTH TEXAS HOURLY WEATHER ROUNDUP
NATIONAL WEATHER SERVICE FORT WORTH TX
1000 AM CDT SAT SEP 05 2015

NOTE: "FAIR" INDICATES FEW OR NO CLOUDS BELOW 12,000 FEET WITH NO
SIGNIFICANT WEATHER AND/OR OBSTRUCTIONS TO VISIBILITY.

TXZ118-119-051600-
DALLAS/FORT WORTH METROPLEX

CITY           SKY/WX    TMP DP  RH WIND       PRES   REMARKS
DFW AIRPORT    MOSUNNY   86  73  65 S9        30.02R HX  93
DALLAS LOVE    MOSUNNY   85  73  67 VRB6      30.02R HX  91
FTW MEACHAM    SUNNY     86  73  65 S10       30.01R HX  93
DAL-EXECUTIVE  SUNNY     84  72  67 VRB5      30.02S
FTW-ALLIANCE   MOSUNNY   86  72  62 S7        30.01R HX  92
FTW-NAS-JRB    MOSUNNY   86  73  65 S9        30.02R HX  93
FTW-SPINKS     MOSUNNY   86  72  62 S8        30.04R HX  92
ARLINGTON      SUNNY     86  71  60 S9        30.02R HX  91
GRAND PRAIRIE  SUNNY     84  73  70 SW9       30.04R HX  91
ADDISON        MOSUNNY   84  72  65 SE12      30.04
MESQUITE       MOSUNNY   84  73  70 S6        30.04R HX  91
LANCASTER      SUNNY     84  71  63 S9        30.04R
$$

TXZ091>094-102>105-117-120-121-131>134-051600-
NORTH CENTRAL TEXAS

CITY           SKY/WX    TMP DP  RH WIND       PRES   REMARKS
SHRMAN/DENISON MOSUNNY   85  74  69 S7        30.04R HX  93
BOWIE          SUNNY     83  71  66 S7        30.02S
BRIDGEPORT     SUNNY     84  73  69 SW6       30.03S HX  91
DENTON         SUNNY     84  73  69 S9        30.01S HX  90
MCKINNEY       SUNNY     85  73  67 S8        30.03R HX  91
ROCKWALL       SUNNY     84  75  72 SW10      30.03S HX  92
TERRELL        MOSUNNY   85  74  69 SW9       30.04R HX  92
WAXAHACHIE     MOSUNNY   82  74  76 S6        30.04S
CLEBURNE       MOSUNNY   82  75  78 S8        30.04S
$$

TXZ083>090-098>101-113>116-127>130-139>142-154-155-051600-
WESTERN NORTH TEXAS

CITY           SKY/WX    TMP DP  RH WIND       PRES   REMARKS
WICHITA FALLS  MOSUNNY   84  70  62 S12       30.00S
WF-KICKAPOO    MOSUNNY   83  70  63 S8        30.02S
VERNON         MOSUNNY   84  64  50 S13       30.01R
ABILENE        SUNNY     82  70  66 S15       30.04R
ABILENE-DYESS  MOSUNNY   83  71  66 S13       30.02R
BRECKENRIDGE   SUNNY     85  69  57 S9        30.02R HAZE
MINERAL WELLS  SUNNY     83  72  69 S7        30.01R
STEPHENVILLE   MOSUNNY   82  72  71 S7        30.06R
COMANCHE       MOSUNNY   83  73  70 SE6       30.04R
COLEMAN        PTSUNNY   82  72  71 S13       30.05R
$$

TXZ143>147-156>162-174-175-051600-
CENTRAL TEXAS

CITY           SKY/WX    TMP DP  RH WIND       PRES   REMARKS
WACO           PTSUNNY   85  74  69 S13       30.02R HX  92
WACO-TSTC      MOSUNNY   82  73  74 SW10      30.03R
WACO-MCGREGOR  PTSUNNY   85  75  72 S15       30.03R HX  93
CORSICANA      PTSUNNY   85  74  69 SW7       30.05R HX  92
MEXIA          PTSUNNY   83  75  75 SW9       30.04R HX  91
HEARNE         CLOUDY    82  76  82 SE7       30.04R
TEMPLE         PTSUNNY   82  72  69 S12G17    30.03R
KILLEEN        PTSUNNY   82  72  70 S13G18    30.03R
KILLEEN-SKYLRK PTSUNNY  N/A N/A N/A S12       30.02S
FORT HOOD      PTSUNNY   83  74  74 S13       30.02S
HAMILTON       MOSUNNY   82  73  72 S10       30.04S
$$

TXZ095>097-106>112-122>126-135>138-148>153-164>167-051600-
EAST TEXAS

CITY           SKY/WX    TMP DP  RH WIND       PRES   REMARKS
PARIS          MOSUNNY   84  70  61 W7        30.05R
GILMER         MOSUNNY   83  74  74 W6        30.05S
MINEOLA        SUNNY     86  75  70 SW7       30.06R HX  95
TYLER          SUNNY     84  74  71 W9        30.05R HX  91
LONGVIEW       SUNNY     85  75  72 SW3       30.05R HX  93
MARSHALL       SUNNY     88  79  74 CALM      30.07S HX 102
ATHENS         PTSUNNY   81  73  78 S5        30.04R
PALESTINE      PTSUNNY   83  76  81 SW3       30.05S HX  91
JACKSONVILLE   MOSUNNY   83  74  74 S6        30.08R HX  91
HENDERSON      MOSUNNY   83  74  73 W5        30.07R HX  90
CENTER         FAIR      85  75  72 W5        30.05S HX  92
NACOGDOCHES    MOSUNNY   82  75  78 S7        30.05R
LUFKIN         MOSUNNY   83  75  77 S5        30.05R HX  90
$$

SUPPLEMENTAL OBSERVATIONS (CENTRAL)

CITY           SKY/WX    TMP DP  RH WIND       PRES   REMARKS
$$

SUPPLEMENTAL OBSERVATIONS (WEST)

CITY           SKY/WX    TMP DP  RH WIND       PRES   REMARKS
$$

SUPPLEMENTAL OBSERVATIONS (EAST)

CITY           SKY/WX    TMP DP  RH WIND       PRES   REMARKS
$$

SUPPLEMENTAL OBSERVATIONS ARE A COLLECTION OF AUTOMATED INSTRUMENTS
THAT ARE MAINTAINED BY A VARIETY OF FEDERAL AND STATE AGENCIES.
CERTAIN ELEMENTS...SUCH AS HUMIDITY VALUES AND SUSTAINED WIND
SPEEDS...MAY BE APPROXIMATED.



USA.gov is the U.S. government's official web portal to all federal, state and local government web resources and services.